EW9528 Weather Reports


Display with metric or nautical units.
time (UTC)temp
F
wind
direction
speed
MPH
gust
MPH
rain 1hr
in
rain 24hr
in
rain mn
in
humidity
%
barometer
mb
20260902203124 82 215 4.0 9.0 0.00 0.00 0.00 21 1016.4
20260902202123 81 241 12.0 19.0 0.00 0.00 0.00 20 1016.6
20260902201123 81 217 8.0 11.0 0.00 0.00 0.00 20 1016.9
20260902201024 81 229 10.0 17.0 0.00 0.00 0.00 21 1016.9
20260902200024 81 195 8.0 11.0 0.00 0.00 0.00 22 1017.0
20260902195923 81 198 6.0 8.0 0.00 0.00 0.00 21 1017.0
20260902194924 81 226 9.0 14.0 0.00 0.00 0.00 22 1017.1
20260902193940 81 194 9.0 15.0 0.00 0.00 0.00 21 1017.4
20260902192926 80 197 8.0 15.0 0.00 0.00 0.00 21 1017.5
20260902191939 80 193 8.0 11.0 0.00 0.00 0.00 21 1017.7
20260902190824 80 222 11.0 17.0 0.00 0.00 0.00 22 1018.0
20260902190723 80 193 10.0 15.0 0.00 0.00 0.00 22 1018.0
20260902185724 80 234 8.0 16.0 0.00 0.00 0.00 23 1018.0
20260902184723 80 211 8.0 13.0 0.00 0.00 0.00 24 1018.1
20260902183739 79 199 7.0 11.0 0.00 0.00 0.00 27 1018.0
20260902182824 79 225 9.0 17.0 0.00 0.00 0.00 27 1018.3
20260902180825 79 222 10.0 18.0 0.00 0.00 0.00 28 1018.4
20260902175842 79 202 8.0 16.0 0.00 0.00 0.00 30 1018.3
20260902174824 78 211 6.0 11.0 0.00 0.00 0.00 29 1018.3
20260902172825 77 193 8.0 12.0 0.00 0.00 0.00 31 1018.5
20260902171922 78 211 10.0 18.0 0.00 0.00 0.00 31 1018.3
20260902170923 78 193 12.0 18.0 0.00 0.00 0.00 31 1018.6
20260902165940 77 195 15.0 22.0 0.00 0.00 0.00 32 1018.4
20260902164924 76 241 13.0 20.0 0.00 0.00 0.00 33 1018.6
20260902163924 75 187 8.0 13.0 0.00 0.00 0.00 33 1018.7
20260902162924 76 224 11.0 15.0 0.00 0.00 0.00 33 1018.6
20260902162024 76 190 13.0 16.0 0.00 0.00 0.00 35 1018.8
20260902160140 73 216 5.0 11.0 0.00 0.00 0.00 40 1018.7
20260902154225 70 119 5.0 6.0 0.00 0.00 0.00 48 1018.6
20260902152322 69 178 5.0 8.0 0.00 0.00 0.00 52 1018.7
20260902145323 67 180 5.0 8.0 0.00 0.00 0.00 56 1018.9
20260902144324 67 178 3.0 6.0 0.00 0.00 0.00 55 1018.6
20260902142422 71 114 2.0 4.0 0.00 0.00 0.00 42 1018.5
20260902141425 69 166 10.0 17.0 0.00 0.00 0.00 48 1018.4
20260902135525 71 120 6.0 10.0 0.00 0.00 0.00 40 1018.2
20260902135424 71 115 4.0 7.0 0.00 0.00 0.00 39 1018.2
20260902134424 71 175 3.0 7.0 0.00 0.00 0.00 39 1018.3
20260902133522 71 173 5.0 7.0 0.00 0.00 0.00 38 1018.2
20260902131622 71 197 4.0 6.0 0.00 0.00 0.00 39 1018.2
20260902130624 70 189 12.0 16.0 0.00 0.00 0.00 41 1017.9
20260902125723 67 185 8.0 13.0 0.00 0.00 0.00 56 1018.0
20260902125641 67 189 10.0 14.0 0.00 0.00 0.00 57 1018.0
20260902124624 66 141 4.0 8.0 0.00 0.00 0.00 63 1018.0
20260902123622 66 168 4.0 7.0 0.00 0.00 0.00 64 1017.9
20260902122625 66 175 5.0 8.0 0.00 0.00 0.00 62 1017.9
20260902120623 67 172 6.0 10.0 0.00 0.00 0.00 62 1017.9
20260902115624 67 157 7.0 10.0 0.00 0.00 0.00 59 1017.9
20260902113625 67 158 5.0 11.0 0.00 0.00 0.00 59 1017.8
20260902112640 67 160 7.0 10.0 0.00 0.00 0.00 61 1017.7
20260902111622 66 162 7.0 11.0 0.00 0.00 0.00 62 1017.7
20260902111524 66 160 6.0 9.0 0.00 0.00 0.00 62 1017.6
20260902110524 66 156 5.0 7.0 0.00 0.00 0.00 65 1017.7
20260902110441 66 168 8.0 12.0 0.00 0.00 0.00 66 1017.7
20260902105423 65 155 4.0 6.0 0.00 0.00 0.00 67 1017.5
20260902104441 65 160 5.0 8.0 0.00 0.00 0.00 64 1017.6
20260902103423 65 144 4.0 8.0 0.00 0.00 0.00 66 1017.7
20260902102424 65 167 7.0 11.0 0.00 0.00 0.00 66 1017.8
20260902101424 65 176 7.0 13.0 0.00 0.00 0.00 65 1017.8
20260902100439 65 172 5.0 7.0 0.00 0.00 0.00 63 1017.7
20260902095522 65 172 4.0 8.0 0.00 0.00 0.00 66 1017.8
20260902094523 64 174 4.0 7.0 0.00 0.00 0.00 68 1017.8
20260902092522 64 180 3.0 5.0 0.00 0.00 0.00 70 1017.9
20260902091525 64 180 2.0 4.0 0.00 0.00 0.00 69 1018.0
20260902090623 64 202 3.0 4.0 0.00 0.00 0.00 66 1018.0
20260902085623 65 247 2.0 3.0 0.00 0.00 0.00 63 1018.2
20260902082724 66 247 2.0 3.0 0.00 0.00 0.00 59 1018.3
20260902081724 65 247 1.0 3.0 0.00 0.00 0.00 61 1018.2
20260902080822 65 292 0.0 1.0 0.00 0.00 0.00 65 1018.3
20260902075823 66 292 2.0 3.0 0.00 0.00 0.00 65 1018.2
20260902072922 67 180 4.0 6.0 0.00 0.00 0.00 67 1018.2
20260902071942 67 166 6.0 10.0 0.00 0.00 0.00 68 1018.0
20260902070922 67 183 4.0 6.0 0.00 0.00 0.00 65 1018.2
20260902065023 68 178 5.0 8.0 0.00 0.00 0.00 57 1017.9
20260902063022 68 174 6.0 10.0 0.00 0.00 0.00 55 1017.9
20260902062023 68 180 5.0 8.0 0.00 0.00 0.00 54 1018.0
20260902061022 68 181 4.0 7.0 0.00 0.00 0.00 52 1017.9
20260902060027 69 205 3.0 4.0 0.00 0.00 0.00 51 1017.9
20260902054126 69 189 4.0 6.0 0.00 0.00 0.00 53 1017.9
20260902054027 69 179 5.0 7.0 0.00 0.00 0.00 53 1017.8
20260902053026 69 187 3.0 5.0 0.00 0.00 0.00 54 1017.8
20260902052027 69 177 4.0 7.0 0.00 0.00 0.00 55 1017.8
20260902051030 69 178 5.0 7.0 0.00 0.00 0.00 55 1017.8
20260902045028 70 180 4.0 6.0 0.00 0.00 0.00 55 1017.9
20260902044027 70 177 5.0 6.0 0.00 0.00 0.00 58 1017.8
20260902043026 70 164 4.0 8.0 0.00 0.00 0.00 60 1017.8
20260902042044 71 172 5.0 7.0 0.00 0.00 0.00 61 1017.7
20260902041928 71 157 5.0 9.0 0.00 0.00 0.00 60 1017.8
20260902041028 71 156 4.0 8.0 0.00 0.00 0.00 56 1017.6
20260902040127 71 168 6.0 10.0 0.00 0.00 0.00 52 1017.8
20260902035127 71 161 5.0 7.0 0.00 0.00 0.00 51 1017.6
20260902035028 71 180 3.0 6.0 0.00 0.00 0.00 51 1017.6
20260902034027 72 157 4.0 5.0 0.00 0.00 0.00 51 1017.7
20260902033026 72 165 5.0 8.0 0.00 0.00 0.00 52 1017.5
20260902032043 72 179 3.0 7.0 0.00 0.00 0.00 54 1017.3
20260902031028 72 157 4.0 7.0 0.00 0.00 0.00 51 1017.2
20260902030026 72 162 3.0 5.0 0.00 0.00 0.00 49 1017.1
20260902025028 74 178 3.0 7.0 0.00 0.00 0.00 42 1017.0
20260902024030 74 174 6.0 9.0 0.00 0.00 0.00 41 1016.7
20260902023127 74 186 6.0 8.0 0.00 0.00 0.00 42 1016.6
20260902020328 74 185 7.0 9.0 0.00 0.00 0.00 46 1016.6
20260902013327 76 185 5.0 7.0 0.00 0.00 0.00 43 1016.5
20260902012329 77 171 5.0 7.0 0.00 0.00 0.00 42 1016.7
20260902011328 77 164 7.0 11.0 0.00 0.00 0.00 39 1016.7
20260902010328 77 168 6.0 11.0 0.00 0.00 0.00 38 1017.0
20260902005327 77 164 6.0 9.0 0.00 0.00 0.00 38 1017.1
20260902004329 77 156 7.0 12.0 0.00 0.00 0.00 38 1017.1
20260902002526 76 162 7.0 10.0 0.00 0.02 0.00 42 1017.2
20260902001528 77 160 5.0 9.0 0.00 0.02 0.00 42 1017.3
20260902000527 77 159 5.0 10.0 0.00 0.02 0.00 41 1017.2
20260901235526 77 160 7.0 12.0 0.00 0.02 0.00 40 1017.1
20260901233626 77 168 6.0 13.0 0.00 0.02 0.00 41 1017.5
20260901232726 77 164 5.0 10.0 0.00 0.02 0.00 39 1017.4
20260901232628 77 169 4.0 9.0 0.00 0.02 0.00 40 1017.3
20260901231628 77 142 6.0 11.0 0.00 0.02 0.00 40 1017.4
20260901230627 77 151 3.0 5.0 0.00 0.02 0.00 39 1017.5
20260901225626 77 154 5.0 11.0 0.00 0.02 0.00 40 1017.5
20260901223629 77 133 8.0 11.0 0.00 0.02 0.00 42 1017.8
20260901222628 77 146 3.0 8.0 0.00 0.02 0.00 43 1018.0
20260901221628 77 127 6.0 11.0 0.00 0.02 0.00 42 1018.3
20260901220645 77 146 6.0 11.0 0.00 0.02 0.00 42 1018.3
20260901215727 76 163 6.0 11.0 0.00 0.02 0.00 44 1018.5
20260901214827 75 135 6.0 11.0 0.00 0.02 0.00 44 1018.7
20260901214728 75 142 6.0 8.0 0.00 0.02 0.00 44 1018.7
20260901213729 76 136 7.0 10.0 0.00 0.02 0.00 43 1018.9
20260901211728 76 175 7.0 10.0 0.00 0.02 0.00 42 1019.2
20260901210729 76 169 7.0 12.0 0.00 0.02 0.00 43 1019.5
20260901205728 75 158 5.0 8.0 0.00 0.02 0.00 45 1019.6
20260901204728 76 138 2.0 5.0 0.00 0.02 0.00 44 1019.7
20260901203728 77 140 5.0 7.0 0.00 0.02 0.00 43 1019.7